Weather History for KILM - February, 2013

Change the Weather History Date:

Saturday, February 9, 2013

  Actual Average Record
Temperature  
Mean Temperature 44 °F 48 °F  
Max Temperature 56 °F 59 °F 77 °F (1994)
Min Temperature 32 °F 37 °F 13 °F (1934)
Degree Days  
Heating Degree Days 21 17  
Month to date heating degree days 167 158  
Since 1 July heating degree days 1491 1633  
Cooling Degree Days 0 0  
Month to date cooling degree days 0 0  
Year to date cooling degree days 12 2  
Moisture  
Dew Point 28 °F    
Average Humidity 54    
Maximum Humidity 82    
Minimum Humidity 26    
Precipitation  
Precipitation 0.00 in 0.13 in 1.95 in (1948)
Month to date precipitation 1.62 1.14  
Year to date precipitation 3.75 4.90  
Snow  
Snow 0.00 in 0.00 in 6.80 in (1973)
Month to date snowfall 0.0 0.1  
Since 1 July snowfall 0.0 1.3  
Snow Depth 0.00 in    
Sea Level Pressure  
Sea Level Pressure 30.22 in    
Wind  
Wind Speed 8 mph (NW)    
Max Wind Speed 20 mph    
Max Gust Speed 25 mph    
Visibility 10 miles    
Events      
T = Trace of Precipitation, MM = Missing Value Source: NWS Daily Summary

Daily Weather History Graph

Daily Weather History Graph

Search for Another Location

Airport or City:

Trip Planner

Search our weather history database for the weather conditions in past years. The results will help you decide how hot, cold, wet, or windy it might be!

Date:

Astronomy

Feb. 09, 2013 Rise Set
Actual Time 7:02 AM EST 5:49 PM EST
Civil Twilight 6:36 AM EST 6:15 PM EST
Nautical Twilight 6:06 AM EST 6:45 PM EST
Astronomical Twilight 5:37 AM EST 7:14 PM EST
Moon 6:12 AM EST (2/9) 5:28 PM EST (2/9)
Length of Visible Light 11h 39m
Length of Day
10h 47m
Waning Crescent, 0% of the Moon is Illuminated
Feb 9
Waning Crescent
Feb 10
New
Feb 17
First Quarter
Feb 25
Full
Mar 4
Last Quarter

Hourly Weather History & Observations

Time (EST) Temp. Windchill Dew Point Humidity Pressure Visibility Wind Dir Wind Speed Gust Speed Precip Events Conditions
12:53 AM 46.0 °F 41.0 °F 33.1 °F 61% 30.05 in 10.0 mi NNW 10.4 mph - N/A   Clear
1:53 AM 44.1 °F 38.1 °F 32.0 °F 63% 30.06 in 10.0 mi NW 11.5 mph - N/A   Clear
2:53 AM 42.1 °F 37.1 °F 30.0 °F 62% 30.07 in 10.0 mi WNW 8.1 mph - N/A   Clear
3:53 AM 41.0 °F 35.2 °F 28.9 °F 62% 30.08 in 10.0 mi NW 9.2 mph - N/A   Clear
4:53 AM 39.9 °F 34.5 °F 28.9 °F 65% 30.11 in 10.0 mi WNW 8.1 mph - N/A   Clear
5:53 AM 39.9 °F 32.5 °F 28.0 °F 63% 30.15 in 10.0 mi WNW 12.7 mph - N/A   Clear
6:53 AM 39.0 °F 32.3 °F 28.0 °F 65% 30.18 in 10.0 mi WNW 10.4 mph - N/A   Clear
7:53 AM 39.9 °F 32.9 °F 28.0 °F 63% 30.22 in 10.0 mi NW 11.5 mph - N/A   Clear
8:53 AM 43.0 °F 35.7 °F 28.0 °F 56% 30.25 in 10.0 mi NNW 15.0 mph 20.7 mph N/A   Clear
9:53 AM 46.0 °F 39.3 °F 26.1 °F 46% 30.25 in 10.0 mi NNW 16.1 mph 25.3 mph N/A   Clear
10:53 AM 48.9 °F - 26.1 °F 41% 30.26 in 10.0 mi NNW 16.1 mph 20.7 mph N/A   Clear
11:53 AM 50.0 °F - 26.1 °F 39% 30.25 in 10.0 mi North 10.4 mph - N/A   Clear
12:53 PM 53.1 °F - 26.1 °F 35% 30.24 in 10.0 mi NW 10.4 mph 18.4 mph N/A   Clear
1:53 PM 55.0 °F - 24.1 °F 30% 30.24 in 10.0 mi NNW 11.5 mph - N/A   Clear
2:53 PM 55.9 °F - 21.9 °F 27% 30.23 in 10.0 mi NNW 9.2 mph - N/A   Clear
3:53 PM 55.9 °F - 24.1 °F 29% 30.23 in 10.0 mi NNW 11.5 mph - N/A   Clear
4:53 PM 54.0 °F - 24.1 °F 31% 30.25 in 10.0 mi NW 8.1 mph - N/A   Clear
5:53 PM 50.0 °F - 25.0 °F 38% 30.27 in 10.0 mi NNW 6.9 mph - N/A   Clear
6:53 PM 44.1 °F - 28.9 °F 55% 30.28 in 10.0 mi Calm Calm - N/A   Clear
7:53 PM 41.0 °F - 30.9 °F 67% 30.31 in 10.0 mi Calm Calm - N/A   Clear
8:53 PM 37.0 °F - 30.0 °F 76% 30.34 in 10.0 mi Calm Calm - N/A   Clear
9:53 PM 36.0 °F - 30.9 °F 82% 30.35 in 10.0 mi Calm Calm - N/A   Clear
10:53 PM 35.1 °F - 30.0 °F 82% 30.36 in 10.0 mi Calm Calm - N/A   Clear
11:53 PM 33.1 °F - 28.9 °F 85% 30.37 in 10.0 mi Calm Calm - N/A   Clear